• In Uzbekistan
  • List of Countries
  • For 7 days
  • Water Temperature
  • Satellite Maps
  • Weather Map
  • Weather Widgets
  • user-avatar
    Login

    Hourly Weather Cajamar

    Today, 17 December, Sunday

    Time Temperature Precipitation Wind Pressure Humidity
    00:00 +23°C° 0 mm 2 mps 695 mmHg 76%
    01:00 +23°C° 0 mm 2 mps 695 mmHg 76%
    02:00 +23°C° 0 mm 2 mps 695 mmHg 77%
    03:00 +23°C° 0 mm 1 mps 695 mmHg 77%
    04:00 +23°C° 0 mm 2 mps 695 mmHg 77%
    05:00 +21°C° 0 mm 2 mps 695 mmHg 77%
    06:00 +21°C° 0 mm 2 mps 695 mmHg 77%
    07:00 +25°C° 0 mm 3 mps 696 mmHg 69%
    08:00 +27°C° 0 mm 4 mps 696 mmHg 62%
    09:00 +29°C° 0 mm 5 mps 697 mmHg 54%
    10:00 +30°C° 0 mm 4 mps 697 mmHg 50%
    11:00 +32°C° 0 mm 4 mps 697 mmHg 47%
    12:00 +34°C° 0 mm 4 mps 697 mmHg 43%
    13:00 +34°C° 0 mm 3 mps 697 mmHg 43%
    14:00 +34°C° 0 mm 2 mps 697 mmHg 43%
    15:00 +34°C° 0 mm 2 mps 696 mmHg 44%
    16:00 +32°C° 0.1 mm 2 mps 696 mmHg 49%
    17:00 +30°C° 0.1 mm 1 mps 696 mmHg 54%
    18:00 +29°C° 0.1 mm 1 mps 696 mmHg 59%
    19:00 +28°C° 0.3 mm 1 mps 696 mmHg 63%
    20:00 +27°C° 0.3 mm 1 mps 697 mmHg 67%
    21:00 +26°C° 0.3 mm 1 mps 697 mmHg 72%
    22:00 +25°C° 0 mm 2 mps 697 mmHg 74%
    23:00 +25°C° 0 mm 2 mps 696 mmHg 75%

    Tomorrow, 18 December, Monday

    Time Temperature Precipitation Wind Pressure Humidity
    00:00 +24°C° 0 mm 2 mps 696 mmHg 77%
    01:00 +24°C° 0 mm 2 mps 696 mmHg 78%
    02:00 +23°C° 0 mm 2 mps 696 mmHg 78%
    03:00 +23°C° 0 mm 2 mps 695 mmHg 79%
    04:00 +23°C° 0 mm 2 mps 696 mmHg 79%
    05:00 +23°C° 0 mm 2 mps 696 mmHg 79%
    06:00 +23°C° 0 mm 2 mps 696 mmHg 79%
    07:00 +25°C° 0 mm 2 mps 697 mmHg 71%
    08:00 +27°C° 0 mm 3 mps 698 mmHg 62%
    09:00 +29°C° 0 mm 4 mps 698 mmHg 53%
    10:00 +30°C° 0.1 mm 3 mps 699 mmHg 51%
    11:00 +31°C° 0.1 mm 3 mps 699 mmHg 48%
    12:00 +32°C° 0.1 mm 2 mps 699 mmHg 46%
    13:00 +31°C° 0.7 mm 2 mps 698 mmHg 49%
    14:00 +31°C° 0.7 mm 2 mps 698 mmHg 53%
    15:00 +30°C° 0.7 mm 1 mps 697 mmHg 56%
    16:00 +29°C° 1.8 mm 2 mps 697 mmHg 64%
    17:00 +27°C° 1.8 mm 2 mps 697 mmHg 71%
    18:00 +25°C° 1.8 mm 3 mps 697 mmHg 79%
    19:00 +25°C° 1.4 mm 3 mps 698 mmHg 81%
    20:00 +24°C° 1.4 mm 3 mps 698 mmHg 83%
    21:00 +22°C° 1.4 mm 3 mps 698 mmHg 85%
    22:00 +22°C° 0.1 mm 3 mps 698 mmHg 86%
    23:00 +23°C° 0.1 mm 2 mps 698 mmHg 87%

    Day after tomorrow, 19 December, Tuesday

    Time Temperature Precipitation Wind Pressure Humidity
    00:00 +23°C° 0.1 mm 2 mps 698 mmHg 88%
    01:00 +21°C° 0 mm 2 mps 698 mmHg 88%
    02:00 +21°C° 0 mm 2 mps 697 mmHg 89%
    03:00 +21°C° 0 mm 2 mps 697 mmHg 90%
    04:00 +21°C° 0 mm 2 mps 697 mmHg 90%
    05:00 +21°C° 0 mm 2 mps 698 mmHg 89%
    06:00 +21°C° 0 mm 2 mps 698 mmHg 89%
    07:00 +24°C° 0 mm 2 mps 699 mmHg 82%
    08:00 +25°C° 0 mm 1 mps 699 mmHg 75%
    09:00 +27°C° 0 mm 1 mps 700 mmHg 67%
    10:00 +28°C° 0.1 mm 1 mps 699 mmHg 62%
    11:00 +30°C° 0.1 mm 2 mps 699 mmHg 58%
    12:00 +31°C° 0.1 mm 2 mps 699 mmHg 53%
    13:00 +30°C° 2.2 mm 2 mps 698 mmHg 57%
    14:00 +30°C° 2.2 mm 2 mps 698 mmHg 61%
    15:00 +29°C° 2.2 mm 2 mps 697 mmHg 65%
    16:00 +28°C° 2.1 mm 2 mps 697 mmHg 70%
    17:00 +27°C° 2.1 mm 2 mps 697 mmHg 75%
    18:00 +25°C° 2.1 mm 3 mps 696 mmHg 80%
    19:00 +25°C° 0.8 mm 3 mps 697 mmHg 82%
    20:00 +24°C° 0.8 mm 2 mps 697 mmHg 83%
    21:00 +23°C° 0.8 mm 2 mps 697 mmHg 85%
    22:00 +23°C° 0.1 mm 2 mps 697 mmHg 86%
    23:00 +23°C° 0.1 mm 2 mps 697 mmHg 87%

    20 December, Wednesday

    Time Temperature Precipitation Wind Pressure Humidity
    00:00 +23°C° 0.1 mm 2 mps 696 mmHg 88%
    01:00 +21°C° 0 mm 2 mps 696 mmHg 88%
    02:00 +21°C° 0 mm 2 mps 696 mmHg 88%
    03:00 +21°C° 0 mm 2 mps 696 mmHg 88%
    04:00 +22°C° 0.3 mm 1 mps 696 mmHg 88%
    05:00 +22°C° 0.3 mm 1 mps 696 mmHg 89%
    06:00 +22°C° 0.3 mm 1 mps 696 mmHg 89%
    07:00 +23°C° 0.5 mm 1 mps 697 mmHg 84%
    08:00 +24°C° 0.5 mm 2 mps 697 mmHg 79%
    09:00 +26°C° 0.5 mm 2 mps 698 mmHg 73%
    10:00 +26°C° 0.9 mm 3 mps 697 mmHg 71%
    11:00 +27°C° 0.9 mm 3 mps 697 mmHg 69%
    12:00 +27°C° 0.9 mm 3 mps 697 mmHg 67%
    13:00 +27°C° 0.8 mm 3 mps 696 mmHg 68%
    14:00 +27°C° 0.8 mm 2 mps 696 mmHg 70%
    15:00 +26°C° 0.8 mm 2 mps 695 mmHg 71%
    16:00 +26°C° 0.3 mm 1 mps 695 mmHg 73%
    17:00 +25°C° 0.3 mm 1 mps 695 mmHg 74%
    18:00 +23°C° 0.3 mm 0 mps 694 mmHg 76%
    19:00 +24°C° 0 mm 1 mps 695 mmHg 78%
    20:00 +24°C° 0 mm 1 mps 695 mmHg 79%
    21:00 +23°C° 0 mm 1 mps 695 mmHg 81%
    22:00 +23°C° 1.1 mm 1 mps 695 mmHg 82%
    23:00 +23°C° 1.1 mm 1 mps 695 mmHg 83%

    21 December, Thursday

    Time Temperature Precipitation Wind Pressure Humidity
    00:00 +23°C° 1.1 mm 1 mps 694 mmHg 83%
    01:00 +23°C° 0.9 mm 1 mps 694 mmHg 84%
    02:00 +22°C° 0.9 mm 1 mps 693 mmHg 85%
    03:00 +22°C° 0.9 mm 1 mps 693 mmHg 85%
    04:00 +22°C° 0.6 mm 1 mps 693 mmHg 86%
    05:00 +22°C° 0.6 mm 1 mps 693 mmHg 86%
    06:00 +21°C° 0.6 mm 2 mps 694 mmHg 86%
    07:00 +21°C° 0.6 mm 2 mps 694 mmHg 85%
    08:00 +22°C° 0.6 mm 3 mps 694 mmHg 83%
    09:00 +22°C° 0.6 mm 3 mps 694 mmHg 81%
    10:00 +22°C° 1.5 mm 4 mps 694 mmHg 83%
    11:00 +22°C° 1.5 mm 4 mps 694 mmHg 84%
    12:00 +22°C° 1.5 mm 4 mps 694 mmHg 86%
    13:00 +22°C° 0.9 mm 4 mps 693 mmHg 85%
    14:00 +22°C° 0.9 mm 4 mps 693 mmHg 84%
    15:00 +22°C° 0.9 mm 4 mps 693 mmHg 83%
    16:00 +22°C° 1.4 mm 4 mps 693 mmHg 85%
    17:00 +22°C° 1.4 mm 4 mps 693 mmHg 87%
    18:00 +21°C° 1.4 mm 4 mps 693 mmHg 88%
    19:00 +21°C° 3.2 mm 4 mps 693 mmHg 89%
    20:00 +20°C° 3.2 mm 4 mps 693 mmHg 90%
    21:00 +20°C° 3.2 mm 3 mps 693 mmHg 90%
    22:00 +20°C° 3.9 mm 4 mps 693 mmHg 91%
    23:00 +20°C° 3.9 mm 4 mps 693 mmHg 91%

    22 December, Friday

    Time Temperature Precipitation Wind Pressure Humidity
    00:00 +19°C° 3.9 mm 4 mps 693 mmHg 92%
    01:00 +19°C° 3.6 mm 4 mps 692 mmHg 92%
    02:00 +19°C° 3.6 mm 4 mps 692 mmHg 92%
    03:00 +19°C° 3.6 mm 4 mps 691 mmHg 92%
    04:00 +19°C° 1.2 mm 4 mps 692 mmHg 92%
    05:00 +20°C° 1.2 mm 4 mps 692 mmHg 92%
    06:00 +20°C° 1.2 mm 4 mps 692 mmHg 92%
    07:00 +20°C° 0.6 mm 4 mps 692 mmHg 91%
    08:00 +20°C° 0.6 mm 5 mps 693 mmHg 90%
    09:00 +20°C° 0.6 mm 5 mps 693 mmHg 90%
    10:00 +21°C° 0.2 mm 5 mps 693 mmHg 89%
    11:00 +21°C° 0.2 mm 5 mps 693 mmHg 89%
    12:00 +21°C° 0.2 mm 5 mps 693 mmHg 88%
    13:00 +22°C° 0.3 mm 5 mps 692 mmHg 86%
    14:00 +22°C° 0.3 mm 5 mps 692 mmHg 85%
    15:00 +22°C° 0.3 mm 4 mps 692 mmHg 84%
    16:00 +23°C° 0.5 mm 4 mps 692 mmHg 84%
    17:00 +23°C° 0.5 mm 4 mps 692 mmHg 84%
    18:00 +23°C° 0.5 mm 4 mps 692 mmHg 84%
    19:00 +22°C° 0.3 mm 4 mps 692 mmHg 85%
    20:00 +22°C° 0.3 mm 4 mps 692 mmHg 87%
    21:00 +21°C° 0.3 mm 3 mps 693 mmHg 89%
    22:00 +21°C° 0.3 mm 4 mps 693 mmHg 89%
    23:00 +21°C° 0.3 mm 4 mps 693 mmHg 89%
    Show more